EW9081 Weather Reports


time (UTC)temp
C
wind
direction
speed
KPH
gust
KPH
rain 1hr
cm
rain 24hr
cm
rain mn
cm
humidity
%
barometer
mb
20260905052657 13 42 0.0 3.2 0.00 0.46 0.46 92 1015.1
20260905052651 13 42 0.0 3.2 0.00 0.46 0.46 92 1015.1
20260905051651 13 59 0.0 3.2 0.00 0.46 0.46 92 1015.1
20260905051152 13 60 0.0 3.2 0.00 0.46 0.46 92 1015.2
20260905050656 13 59 0.0 1.6 0.00 0.46 0.46 92 1015.2
20260905050651 13 60 0.0 1.6 0.00 0.46 0.46 92 1015.1
20260905045652 13 60 0.0 1.6 0.00 0.46 0.46 92 1015.2
20260905045151 13 60 0.0 1.6 0.00 0.46 0.46 91 1015.2
20260905044648 13 60 0.0 1.6 0.00 0.46 0.46 91 1015.2
20260905044149 13 60 0.0 3.2 0.00 0.48 0.46 91 1015.1
20260905043649 13 60 0.0 3.2 0.00 0.48 0.46 91 1015.1
20260905043149 13 60 0.0 3.2 0.00 0.51 0.46 91 1015.0
20260905042649 13 60 0.0 3.2 0.00 0.51 0.46 91 1014.9
20260905042155 13 15 0.0 3.2 0.00 0.53 0.46 92 1014.9
20260905042149 13 40 0.0 3.2 0.00 0.53 0.46 91 1014.9
20260905041149 13 15 0.0 3.2 0.00 0.56 0.46 92 1014.8
20260905040649 13 15 0.0 0.0 0.00 0.56 0.46 92 1014.7
20260905040149 13 15 0.0 1.6 0.00 0.56 0.46 92 1014.7
20260905035647 13 15 0.0 1.6 0.00 0.56 0.46 92 1014.7
20260905035147 13 15 0.0 1.6 0.00 0.58 0.46 92 1014.6
20260905034646 13 15 0.0 3.2 0.00 0.58 0.46 92 1014.6
20260905034148 13 15 0.0 3.2 0.00 0.58 0.46 92 1014.6
20260905033651 13 15 0.0 3.2 0.00 0.58 0.46 92 1014.5
20260905033647 13 15 0.0 3.2 0.00 0.58 0.46 92 1014.6
20260905032647 13 15 0.0 3.2 0.00 0.61 0.46 92 1014.5
20260905032148 13 15 0.0 0.0 0.00 0.61 0.46 92 1014.4
20260905031648 14 15 0.0 0.0 0.00 0.64 0.46 92 1014.3
20260905031147 14 15 0.0 3.2 0.00 0.64 0.46 92 1014.2
20260905030646 14 15 0.0 3.2 0.00 0.64 0.46 92 1014.1
20260905030150 14 15 0.0 3.2 0.00 0.64 0.46 92 1014.2
20260905030145 14 15 0.0 3.2 0.00 0.64 0.46 92 1014.2
20260905025146 14 15 0.0 3.2 0.00 0.64 0.46 91 1014.1
20260905024644 14 15 0.0 0.0 0.00 0.64 0.46 91 1014.1
20260905024146 14 15 0.0 0.0 0.00 0.64 0.46 91 1014.1
20260905023644 14 15 0.0 0.0 0.00 0.64 0.46 91 1014.1
20260905023145 14 15 0.0 0.0 0.00 0.64 0.46 91 1014.0
20260905022650 14 15 0.0 3.2 0.00 0.64 0.46 91 1014.0
20260905022645 14 15 0.0 3.2 0.00 0.64 0.46 91 1014.1
20260905021647 14 15 0.0 3.2 0.00 0.64 0.46 90 1014.0
20260905021643 14 15 0.0 3.2 0.00 0.64 0.46 91 1014.0
20260905020644 14 15 0.0 3.2 0.00 0.64 0.46 90 1013.9
20260905020142 15 15 0.0 3.2 0.00 0.64 0.46 90 1013.9
20260905015644 15 15 0.0 3.2 0.00 0.64 0.46 90 1014.0
20260905015141 15 15 0.0 4.8 0.00 0.64 0.46 91 1014.0
20260905014641 15 15 0.0 4.8 0.00 0.64 0.46 91 1014.0
20260905014140 15 27 1.6 6.4 0.00 0.66 0.46 91 1014.0
20260905013641 15 23 1.6 6.4 0.00 0.66 0.46 91 1014.0
20260905013142 15 22 0.0 4.8 0.00 0.66 0.46 91 1013.9
20260905012638 15 189 0.0 4.8 0.00 0.69 0.46 91 1014.0
20260905012139 15 189 0.0 4.8 0.00 0.74 0.46 91 1013.9
20260905011638 15 65 0.0 3.2 0.00 0.76 0.46 91 1013.9
20260905011145 14 72 0.0 3.2 0.00 0.79 0.46 91 1013.8
20260905011139 14 65 0.0 3.2 0.00 0.79 0.46 91 1013.8
20260905010639 14 67 0.0 3.2 0.00 0.79 0.46 91 1013.8
20260905005639 14 9 0.0 3.2 0.00 0.79 0.46 91 1013.7
20260905005139 14 9 0.0 4.8 0.00 0.79 0.46 91 1013.7
20260905004643 14 267 1.6 3.2 0.00 0.79 0.46 90 1013.5
20260905004638 14 9 0.0 4.8 0.00 0.79 0.46 91 1013.5
20260905003639 14 283 1.6 8.0 0.03 0.79 0.46 90 1013.5
20260905003139 14 38 1.6 8.0 0.03 0.79 0.46 90 1013.5
20260905002638 15 73 1.6 12.9 0.03 0.79 0.46 90 1013.4
20260905002138 15 33 3.2 12.9 0.03 0.79 0.46 90 1013.3
20260905001639 15 15 1.6 9.7 0.03 0.79 0.46 90 1013.3
20260905001144 15 350 1.6 12.9 0.05 0.81 0.46 89 1013.2
20260905001139 15 9 1.6 9.7 0.03 0.79 0.46 89 1013.3
20260905000144 15 351 4.8 8.0 0.05 0.86 0.46 89 1012.9
20260905000138 15 128 3.2 12.9 0.05 0.84 0.46 89 1013.1
20260904235140 15 30 4.8 8.0 0.05 0.86 0.46 88 1013.0
20260904234639 15 28 4.8 8.0 0.05 0.89 0.46 89 1012.9
20260904234139 15 15 3.2 8.0 0.05 0.89 0.46 89 1012.9
20260904233639 15 15 1.6 6.4 0.03 0.89 0.43 90 1012.9
20260904233138 15 10 1.6 6.4 0.03 0.89 0.43 91 1012.9
20260904232638 15 43 1.6 6.4 0.03 0.89 0.43 89 1012.9
20260904232144 16 17 0.0 4.8 0.03 0.89 0.43 88 1013.0
20260904232138 16 20 1.6 6.4 0.03 0.89 0.43 89 1013.0
20260904231753 16 57 0.0 3.2 0.03 0.89 0.43 87 1013.0
20260904230640 16 63 1.6 4.8 0.00 0.86 0.41 85 1012.9
20260904230143 16 37 1.6 9.7 0.00 0.86 0.41 84 1012.9
20260904230139 16 76 1.6 9.7 0.00 0.86 0.41 85 1012.9
20260904225140 16 253 1.6 9.7 0.00 0.86 0.41 84 1012.8
20260904224640 16 5 3.2 12.9 0.00 0.86 0.41 84 1012.8
20260904224138 17 5 3.2 12.9 0.00 0.86 0.41 86 1012.8
20260904223637 17 23 1.6 9.7 0.00 0.86 0.41 83 1012.8
20260904223136 17 19 3.2 9.7 0.00 0.86 0.41 85 1012.8
20260904222637 17 9 3.2 8.0 0.00 0.86 0.41 85 1012.8
20260904222136 17 196 3.2 8.0 0.03 0.86 0.41 85 1012.8
20260904221640 17 13 1.6 8.0 0.05 0.86 0.41 87 1012.8
20260904221635 17 175 3.2 8.0 0.03 0.86 0.41 88 1012.7
20260904220635 16 339 1.6 6.4 0.05 0.86 0.41 89 1012.8
20260904220139 16 148 3.2 8.0 0.05 0.86 0.41 87 1012.8
20260904220135 16 17 3.2 6.4 0.05 0.86 0.41 87 1012.7
20260904215139 16 76 1.6 4.8 0.05 0.86 0.41 90 1012.9
20260904215135 16 24 1.6 8.0 0.05 0.86 0.41 90 1012.8
20260904214634 16 166 1.6 4.8 0.05 0.86 0.41 90 1012.9
20260904213633 15 37 1.6 6.4 0.05 0.86 0.41 91 1012.9
20260904213133 15 28 1.6 8.0 0.05 0.86 0.41 92 1012.8
20260904212631 15 10 1.6 8.0 0.05 0.86 0.41 91 1012.8
20260904212130 15 14 1.6 8.0 0.03 0.84 0.38 89 1012.9
20260904211130 15 74 1.6 6.4 0.00 0.81 0.36 89 1012.8
20260904210630 15 35 1.6 8.0 0.03 0.81 0.36 89 1012.8
20260904210130 15 36 1.6 8.0 0.03 0.81 0.36 88 1012.7
20260904205630 15 89 1.6 12.9 0.03 0.81 0.36 88 1012.8
20260904205128 15 175 1.6 12.9 0.05 0.81 0.36 88 1012.7
20260904204627 16 169 3.2 11.3 0.05 0.81 0.36 86 1012.7
20260904204127 16 187 3.2 12.9 0.05 0.81 0.36 85 1012.7
20260904203628 16 153 3.2 12.9 0.08 0.81 0.36 87 1012.7
20260904203124 16 180 3.2 8.0 0.08 0.81 0.36 92 1012.6
20260904202625 16 165 1.6 8.0 0.08 0.81 0.36 90 1012.6
20260904202125 15 121 0.0 6.4 0.08 0.81 0.36 89 1012.6
20260904201624 15 158 0.0 3.2 0.08 0.84 0.36 89 1012.6
20260904201124 15 172 0.0 3.2 0.08 0.84 0.36 89 1012.7
20260904200624 15 172 0.0 8.0 0.05 0.81 0.33 88 1012.8
20260904200124 15 173 1.6 8.0 0.05 0.81 0.33 88 1012.8
20260904195625 15 175 1.6 9.7 0.05 0.81 0.33 86 1012.7
20260904195125 15 107 1.6 9.7 0.03 0.79 0.30 84 1012.7
20260904194625 15 202 1.6 11.3 0.03 0.79 0.30 86 1012.7
20260904194124 16 167 1.6 11.3 0.03 0.79 0.30 84 1012.6
20260904193624 16 163 1.6 11.3 0.00 0.76 0.28 82 1012.7
20260904193124 16 190 1.6 11.3 0.00 0.76 0.28 82 1012.5
20260904192624 16 160 1.6 6.4 0.00 0.76 0.28 85 1012.6
20260904192124 16 130 1.6 6.4 0.00 0.79 0.28 82 1012.5
20260904191623 16 84 1.6 6.4 0.00 0.79 0.28 84 1012.6
20260904191128 15 171 1.6 6.4 0.00 0.81 0.28 89 1012.6
20260904191122 16 170 1.6 6.4 0.00 0.81 0.28 86 1012.6
20260904190122 15 334 1.6 4.8 0.00 0.81 0.28 87 1012.6
20260904185622 15 0 0.0 3.2 0.00 0.84 0.28 88 1012.7
20260904185128 15 5 0.0 4.8 0.00 0.86 0.28 89 1012.6
20260904185124 15 5 0.0 4.8 0.00 0.86 0.28 89 1012.6
20260904184122 15 39 0.0 3.2 0.00 0.86 0.28 90 1012.6
20260904183623 15 39 0.0 3.2 0.00 0.89 0.28 90 1012.6
20260904183127 15 22 1.6 8.0 0.00 0.94 0.28 89 1012.6
20260904183123 15 38 0.0 3.2 0.00 0.91 0.28 89 1012.6
20260904182736 15 11 1.6 8.0 0.00 0.97 0.28 92 1012.5
20260904181619 14 28 1.6 8.0 0.00 0.99 0.28 90 1012.4
20260904181120 14 19 1.6 8.0 0.00 0.99 0.28 91 1012.4
20260904180621 14 18 1.6 4.8 0.00 0.99 0.28 91 1012.4
20260904180124 14 162 1.6 4.8 0.00 0.99 0.28 92 1012.4
20260904180120 14 24 1.6 4.8 0.00 0.99 0.28 91 1012.5
20260904175120 14 35 0.0 4.8 0.00 0.99 0.28 91 1012.3
20260904174625 13 348 1.6 4.8 0.00 0.99 0.28 93 1012.3
20260904174120 13 79 1.6 4.8 0.00 0.99 0.28 93 1012.3
20260904173619 13 69 0.0 4.8 0.00 0.99 0.28 92 1012.2
20260904173118 13 125 1.6 8.0 0.00 0.99 0.28 92 1012.3
20260904172617 13 35 1.6 8.0 0.00 0.99 0.28 91 1012.2
20260904172119 13 163 1.6 6.4 0.00 0.99 0.28 92 1012.2
20260904171618 13 283 0.0 4.8 0.00 1.02 0.28 93 1012.2
20260904171118 13 69 0.0 4.8 0.00 1.02 0.28 93 1012.1
20260904170619 13 19 1.6 6.4 0.00 1.02 0.28 93 1012.0
20260904170122 13 44 1.6 6.4 0.00 1.02 0.28 94 1012.0
20260904170117 13 31 1.6 6.4 0.00 1.02 0.28 94 1012.0
20260904165118 13 28 1.6 6.4 0.00 1.02 0.28 94 1011.9
20260904164617 13 355 1.6 6.4 0.00 1.02 0.28 94 1011.8
20260904164116 13 343 1.6 6.4 0.00 1.02 0.28 94 1011.8
20260904163617 13 32 1.6 4.8 0.00 1.02 0.28 95 1011.8
20260904163116 13 28 1.6 4.8 0.00 1.02 0.28 94 1011.8
20260904162617 13 49 0.0 4.8 0.00 1.02 0.28 94 1011.8
20260904162116 13 9 0.0 4.8 0.00 1.02 0.28 95 1011.8
20260904161627 12 223 0.0 4.8 0.00 1.04 0.28 95 1011.9
20260904161621 13 10 1.6 4.8 0.00 1.02 0.28 95 1011.9
20260904161115 13 22 1.6 4.8 0.00 1.02 0.28 95 1011.8
20260904160615 13 9 1.6 4.8 0.00 1.04 0.28 95 1011.8
20260904155615 12 22 0.0 4.8 0.00 1.04 0.28 95 1011.9
20260904155112 12 69 1.6 4.8 0.00 1.04 0.28 95 1011.9
20260904154612 12 45 1.6 6.4 0.00 1.07 0.28 95 1011.8
20260904154113 12 123 1.6 6.4 0.00 1.12 0.28 95 1011.8
20260904153613 12 344 1.6 6.4 0.00 1.12 0.28 95 1011.7
20260904153111 12 5 1.6 6.4 0.00 1.12 0.28 95 1011.7
20260904152609 12 22 1.6 6.4 0.00 1.14 0.28 95 1011.6
20260904152110 12 326 1.6 6.4 0.00 1.17 0.28 95 1011.6
20260904151611 12 331 1.6 6.4 0.00 1.17 0.28 95 1011.5
20260904151109 12 22 1.6 6.4 0.00 1.17 0.28 95 1011.5
20260904150608 12 67 0.0 4.8 0.00 1.19 0.28 95 1011.5
20260904150108 12 346 0.0 4.8 0.00 1.19 0.28 95 1011.4
20260904145609 12 333 1.6 6.4 0.00 1.22 0.28 95 1011.4
20260904145107 12 42 1.6 6.4 0.00 1.30 0.28 95 1011.3
20260904144609 12 26 1.6 4.8 0.00 1.32 0.28 95 1011.3
20260904144108 11 172 0.0 4.8 0.00 1.37 0.28 95 1011.2
20260904143609 11 69 0.0 4.8 0.00 1.37 0.28 95 1011.2
20260904143108 11 61 1.6 4.8 0.00 1.37 0.28 95 1011.2
20260904142608 11 16 1.6 4.8 0.00 1.37 0.28 95 1011.1
20260904142109 11 28 0.0 4.8 0.00 1.40 0.28 95 1011.0
20260904141608 11 103 1.6 4.8 0.00 1.45 0.28 95 1011.0
20260904141108 11 350 1.6 4.8 0.00 1.47 0.28 95 1010.8
20260904140607 11 13 0.0 4.8 0.00 1.50 0.28 95 1010.7
20260904140109 11 355 0.0 3.2 0.00 1.50 0.28 95 1010.7
20260904135609 11 13 0.0 3.2 0.00 1.50 0.28 95 1010.7
20260904135108 11 12 0.0 4.8 0.00 1.52 0.28 95 1010.7
20260904134607 11 5 0.0 4.8 0.03 1.57 0.28 95 1010.7
20260904134108 11 5 0.0 3.2 0.03 1.57 0.28 95 1010.7
20260904133608 11 25 1.6 4.8 0.03 1.60 0.28 95 1010.5
20260904133109 11 20 1.6 4.8 0.03 1.60 0.28 95 1010.4
20260904132613 11 26 0.0 6.4 0.03 1.60 0.28 95 1010.4
20260904132609 11 5 1.6 4.8 0.03 1.60 0.28 95 1010.4
20260904131607 11 34 1.6 6.4 0.03 1.60 0.28 95 1010.3
20260904131109 11 0 0.0 4.8 0.03 1.60 0.28 95 1010.3
20260904130607 11 0 1.6 6.4 0.03 1.60 0.28 95 1010.3
20260904130105 11 24 1.6 6.4 0.03 1.60 0.28 95 1010.3
20260904125611 11 173 0.0 3.2 0.03 1.60 0.25 95 1010.1
20260904125605 11 36 1.6 6.4 0.05 1.60 0.28 95 1010.2
20260904125105 11 16 1.6 6.4 0.05 1.60 0.28 95 1010.2
20260904124604 11 178 0.0 3.2 0.03 1.60 0.25 95 1010.2
20260904123603 11 18 0.0 3.2 0.03 1.60 0.25 95 1010.1
20260904123101 11 34 0.0 3.2 0.03 1.60 0.25 95 1010.1
20260904122601 11 28 0.0 3.2 0.03 1.60 0.25 95 1010.1
20260904122103 11 28 0.0 3.2 0.03 1.63 0.25 95 1010.1
20260904121601 11 23 0.0 3.2 0.03 1.63 0.25 95 1010.1
20260904121107 11 22 1.6 4.8 0.03 1.65 0.25 95 1010.0
20260904121101 11 19 0.0 4.8 0.03 1.65 0.25 95 1010.0
20260904115602 11 21 0.0 3.2 0.00 1.75 0.23 95 1010.0
20260904115109 11 13 1.6 3.2 0.00 1.91 0.23 95 1009.8
20260904115101 12 21 0.0 3.2 0.00 1.83 0.23 95 1009.9
20260904114601 11 23 0.0 3.2 0.00 1.88 0.23 95 1010.0
20260904114102 11 17 0.0 3.2 0.00 1.88 0.23 95 1009.9
20260904113101 11 24 0.0 3.2 0.00 1.91 0.23 95 1009.8
20260904112601 11 20 0.0 3.2 0.00 1.91 0.23 95 1009.7
20260904112103 11 349 1.6 3.2 0.00 1.91 0.23 95 1009.6
20260904111603 11 15 0.0 4.8 0.00 1.93 0.23 95 1009.5
20260904111559 11 14 0.0 3.2 0.00 1.93 0.23 95 1009.6
20260904111057 11 17 0.0 4.8 0.00 1.93 0.23 95 1009.5
20260904110059 11 0 0.0 3.2 0.00 1.93 0.23 95 1009.5
20260904105559 12 355 0.0 3.2 0.03 1.93 0.23 95 1009.5
20260904105057 12 99 0.0 6.4 0.03 1.93 0.23 95 1009.5
20260904104600 12 22 0.0 6.4 0.03 1.93 0.23 95 1009.5
20260904104057 12 12 0.0 3.2 0.03 1.93 0.23 95 1009.5
20260904103602 12 106 0.0 3.2 0.03 1.93 0.23 95 1009.4
20260904103557 12 5 0.0 3.2 0.03 1.93 0.23 95 1009.5
20260904103210 12 107 0.0 3.2 0.03 1.93 0.23 95 1009.4
20260904102059 12 109 0.0 3.2 0.03 1.93 0.23 95 1009.4
20260904101603 12 57 0.0 3.2 0.03 1.93 0.23 95 1009.4
20260904101559 12 115 0.0 3.2 0.03 1.93 0.23 95 1009.4
20260904100559 12 43 0.0 3.2 0.05 1.93 0.23 95 1009.3
20260904100555 12 53 0.0 3.2 0.03 1.93 0.23 95 1009.4
20260904095556 12 43 0.0 4.8 0.05 1.91 0.20 95 1009.3
20260904095056 12 44 0.0 4.8 0.05 1.91 0.20 94 1009.3
20260904094555 12 5 0.0 3.2 0.08 1.91 0.20 94 1009.4
20260904094054 12 5 0.0 0.0 0.10 1.91 0.20 95 1009.4
20260904093556 12 5 0.0 0.0 0.13 1.91 0.20 94 1009.4
20260904093054 12 9 0.0 0.0 0.15 1.91 0.20 94 1009.3
20260904092554 12 5 0.0 3.2 0.18 1.91 0.20 94 1009.3
20260904092052 12 5 0.0 3.2 0.20 1.91 0.20 94 1009.3
20260904091553 12 5 0.0 3.2 0.20 1.91 0.20 94 1009.3
20260904091054 12 5 0.0 3.2 0.20 1.91 0.20 94 1009.3
20260904090558 12 5 0.0 3.2 0.18 1.88 0.18 94 1009.2
20260904090553 12 0 0.0 3.2 0.20 1.91 0.20 95 1009.2
20260904085559 12 9 0.0 3.2 0.13 1.83 0.13 94 1009.2
20260904085554 12 9 0.0 3.2 0.15 1.85 0.15 94 1009.2
20260904085055 12 5 0.0 3.2 0.15 1.85 0.15 94 1009.2
20260904084707 12 5 0.0 3.2 0.08 1.78 0.08 94 1009.3
20260904084054 12 5 0.0 3.2 0.10 1.80 0.10 94 1009.3
20260904083053 12 5 0.0 3.2 0.05 1.78 0.05 94 1009.4
20260904082553 12 5 0.0 3.2 0.03 1.75 0.03 94 1009.3
20260904082051 12 355 0.0 3.2 0.00 1.73 0.03 94 1009.4
20260904081556 11 32 0.0 4.8 0.00 1.73 0.00 94 1009.3
20260904081551 11 347 0.0 4.8 0.00 1.73 0.00 94 1009.3
20260904080552 11 180 0.0 3.2 0.00 1.73 0.00 94 1009.4
20260904080050 11 180 0.0 3.2 0.00 1.73 0.00 94 1009.4
20260904075555 12 180 0.0 3.2 0.00 1.73 0.00 94 1009.4
20260904075551 12 180 0.0 3.2 0.00 1.73 0.00 94 1009.4
20260904074549 12 180 0.0 3.2 0.00 1.73 0.00 94 1009.3
20260904074048 12 180 0.0 3.2 0.00 1.73 0.00 94 1009.3
20260904073549 12 180 0.0 3.2 0.00 1.73 0.00 94 1009.3
20260904073049 12 60 0.0 3.2 0.00 1.73 0.00 94 1009.2
20260904072549 12 60 0.0 3.2 0.00 1.73 0.00 94 1009.2
20260904072050 12 60 0.0 3.2 0.00 1.73 0.00 94 1009.2
20260904071549 12 60 0.0 3.2 0.00 1.73 0.00 94 1009.3
20260904071048 12 9 0.0 3.2 0.00 1.73 0.00 94 1009.2
20260904070552 12 5 0.0 3.2 0.00 1.73 0.00 94 1009.1
20260904070548 12 41 0.0 3.2 0.00 1.73 0.00 94 1009.1
20260904065547 12 41 0.0 4.8 0.00 1.73 1.73 94 1009.2
20260904065048 12 37 0.0 4.8 0.00 1.73 1.73 94 1009.1
20260904064547 12 37 0.0 4.8 0.00 1.73 1.73 94 1009.1
20260904064047 12 37 0.0 4.8 0.00 1.73 1.73 94 1009.1
20260904063548 12 136 0.0 3.2 0.00 1.73 1.73 94 1009.2
20260904063047 12 136 0.0 3.2 0.00 1.73 1.73 94 1009.2
20260904062547 12 136 0.0 3.2 0.00 1.73 1.73 94 1009.2
20260904062051 12 136 0.0 3.2 0.00 1.73 1.73 94 1009.2
20260904062045 12 136 0.0 3.2 0.00 1.73 1.73 94 1009.2
20260904061045 12 136 0.0 3.2 0.00 1.73 1.73 94 1009.2
20260904060545 12 137 0.0 3.2 0.00 1.73 1.73 94 1009.2
20260904060045 12 137 0.0 3.2 0.00 1.73 1.73 94 1009.3
20260904055545 12 138 0.0 0.0 0.00 1.73 1.73 94 1009.3
20260904055045 12 138 0.0 0.0 0.00 1.73 1.73 94 1009.3
20260904054544 12 138 0.0 0.0 0.00 1.73 1.73 94 1009.3
20260904054044 12 138 0.0 0.0 0.03 1.73 1.73 93 1009.3
20260904053549 12 138 0.0 3.2 0.05 1.73 1.73 93 1009.3
20260904053543 12 138 0.0 3.2 0.03 1.73 1.73 93 1009.3